Location: Dvur Kralove nad Labem
(50.4330°N, 15.8170°E)
Time: 08:25:51
(UTC+02:00)

ISS - Pass Details

Date: 23 May 2018
Orbit: 402 x 408 km, 51.6° (Epoch: 20 September)

Event Time Altitude Azimuth Distance (km) Brightness Sun altitude
Rises 23:34:31 0° 266° (W) 2,319 0.2 -16.8°
Reaches altitude 10° 23:36:37 10° 269° (W) 1,459 -0.8 -16.9°
Maximum altitude 23:39:52 72° 354° (N) 429 -3.6 -17.0°
Drops below altitude 10° 23:43:08 10° 80° (E) 1,459 -1.1 -17.2°
Enters shadow 23:45:58 -3° 83° (E) 2,627 0.2 -17.3°
